Content
SEND FEEDBACK

Daily
Averages
Monthly
Summary
United States of America

PYGA BEACH, GUAM


Home > North America > United States > Guam
Elevation: 20 feet     Latitude: 13 17N     Longitude: 144 39E

WEATHER
 
SELECT A DAY
Number of Records: 342,554;   Date Range: 1/1/95 - 9/16/14
 
SHARE

PRINT THIS DATA

[ ← Previous Day ]
WEATHER ALMANAC - JANUARY 26, 2014
[ Next Day → ]
[ °C ]   °F
Weather ElementAverageHighLow
Temperature76.9 °F78.8 °F (9:34 am)73.4 °F (5:58 am)
Dewpoint72.9 °F77.7 °F (2:58 pm) (7:00 pm)
Humidity89.6 %100 % (2:33 pm)83 % (1:58 am)
Barometer29.67 in29.74 in (9:54 am)29.59 in (2:58 pm)
Wind Speed5.8 mph12.7 mph (5:56 am)
Wind Gust18.4 mph (5:51 am)
Weather ElementAverage
Visibility8.9 mi
Wind DirectionENE (71.1 °)

Weather ElementTotal
Precipitation0.78 in
Cooling Degree Days11.1 (Base 65)
Growing Degree Days26.1 (Base 50)
Averaged from 99 records on January 26, 2014
WEATHER CONDITIONS BREAKOUT
WIND DIRECTION BREAKOUT
WEATHER BY HOUR - JANUARY 26, 2014
[ °C ]   °F
Local TimeTemperatureDewpointHumidityBarometerVisibilityWind DirectionWind SpeedGust SpeedPrecipitationEventsConditions
1:16 AM75.2 °F71.6 °F89 %29.64 in9.0 miENE (60°)4.6 mphPartly Cloudy
1:58 AM77.0 °F71.6 °F83 %29.64 in9.0 miNE (40°)5.8 mphMostly Cloudy
2:08 AM77.0 °F71.6 °F83 %29.67 in8.0 miNE (50°)6.9 mphMostly Cloudy
2:18 AM77.0 °F71.6 °F83 %29.67 in10.0 miNE (50°)6.9 mphMostly Cloudy
2:53 AM77.0 °F0.0 °F29.68 in10.0 miNE (40°)6.9 mphMostly Cloudy
2:58 AM77.0 °F71.6 °F83 %29.65 in10.0 miNE (40°)6.9 mphMostly Cloudy
3:18 AM77.0 °F71.6 °F83 %29.68 in10.0 miNE (50°)5.8 mphScattered Clouds
3:52 AM77.0 °F71.6 °F83 %29.66 in10.0 miNNE (30°)6.9 mphRainLight Rain
3:57 AM77.0 °F71.6 °F83 %29.66 in9.0 miNNE (30°)5.8 mphRainLight Rain
3:58 AM77.0 °F71.6 °F83 %29.63 in9.0 miNNE (30°)6.9 mph0.00 inRainLight Rain
4:08 AM77.0 °F71.6 °F83 %29.66 in10.0 miNNE (20°)8.1 mphLight Drizzle
4:09 AM77.0 °F71.6 °F83 %29.66 in10.0 miNNE (20°)8.1 mphMostly Cloudy
4:14 AM77.0 °F71.6 °F83 %29.66 in10.0 miNNE (20°)8.1 mphMostly Cloudy
4:24 AM77.0 °F71.6 °F83 %29.66 in10.0 miNNE (20°)8.1 mphOvercast
4:44 AM77.0 °F71.6 °F83 %29.66 in10.0 miNE (40°)5.8 mphOvercast
4:58 AM77.0 °F71.6 °F83 %29.62 in10.0 miNNE (30°)5.8 mph0.00 inOvercast
5:13 AM77.0 °F71.6 °F83 %29.66 in10.0 miNE (50°)5.8 mphMostly Cloudy
5:18 AM77.0 °F71.6 °F83 %29.66 in10.0 miNE (50°)5.8 mphScattered Clouds
5:48 AM77.0 °F71.6 °F83 %29.68 in10.0 miSouth (170°)11.5 mph17.3 mphMostly Cloudy
5:51 AM77.0 °F71.6 °F83 %29.68 in4.0 miSSW (210°)10.4 mph18.4 mphRainLight Rain
5:56 AM75.2 °F71.6 °F89 %29.68 in1.8 miSouth (190°)12.7 mph18.4 mphRainHeavy Rain
5:58 AM73.4 °F71.6 °F94 %29.65 in1.2 miSouth (190°)10.4 mph0.10 inRainHeavy Rain
6:18 AM73.4 °F69.8 °F88 %29.68 in2.0 miSouth (180°)2.3 mphRainHeavy Rain
6:23 AM73.4 °F69.8 °F88 %29.68 in2.5 miSE (140°)4.6 mphRainHeavy Rain
6:28 AM73.4 °F69.8 °F88 %29.68 in3.0 miSSE (160°)4.6 mphRainRain
6:38 AM73.4 °F69.8 °F88 %29.68 in6.0 miSE (130°)6.9 mphRainRain
6:43 AM73.4 °F69.8 °F88 %29.69 in6.0 miESE (110°)6.9 mphRainHeavy Rain
6:53 AM75.2 °F69.8 °F83 %29.69 in6.0 miEast (100°)6.9 mphRainRain
6:58 AM75.2 °F69.8 °F83 %29.67 in7.0 miEast (100°)5.8 mph0.51 inRainLight Rain
7:03 AM75.2 °F69.8 °F83 %29.70 in10.0 miESE (110°)4.6 mphRainLight Rain
7:25 AM75.2 °F69.8 °F83 %29.70 in10.0 miESE (120°)5.8 mphPartly Cloudy
7:31 AM75.2 °F69.8 °F83 %29.70 in10.0 miSE (130°)5.8 mphLight Drizzle
7:58 AM75.2 °F69.8 °F83 %29.67 in5.0 miESE (120°)8.1 mph0.04 inRainLight Rain
8:58 AM77.0 °F73.4 °F89 %29.70 in10.0 miNNE (20°)2.3 mph0.02 inLight Drizzle
8:59 AM77.0 °F73.4 °F89 %29.73 in10.0 miNorth (10°)2.3 mphClear
9:34 AM78.8 °F73.4 °F83 %29.73 in10.0 miNorth (10°)2.3 mphMostly Cloudy
9:39 AM78.8 °F73.4 °F83 %29.73 in10.0 miNorth (360°)2.3 mphMostly Cloudy
9:54 AM78.8 °F73.4 °F83 %29.74 in10.0 miCalmScattered Clouds
9:58 AM78.8 °F73.4 °F83 %29.71 in10.0 miCalm0.00 inMostly Cloudy
10:33 AM78.8 °F75.2 °F89 %29.74 in10.0 miCalmScattered Clouds
10:43 AM78.8 °F75.2 °F89 %29.74 in10.0 miNNE (20°)4.6 mphMostly Cloudy
10:48 AM78.8 °F75.2 °F89 %29.73 in10.0 miNNE (30°)5.8 mphMostly Cloudy
10:58 AM78.8 °F75.2 °F89 %29.70 in9.0 miNorth (10°)5.8 mphMostly Cloudy
11:08 AM77.0 °F75.2 °F94 %29.72 in10.0 miNNE (30°)4.6 mphScattered Clouds
11:18 AM78.8 °F73.4 °F83 %29.71 in10.0 miNNE (20°)8.1 mphMostly Cloudy
11:23 AM78.8 °F73.4 °F83 %29.70 in10.0 miNNE (20°)8.1 mphScattered Clouds
11:33 AM77.0 °F73.4 °F89 %29.70 in10.0 miNNE (20°)9.2 mphMostly Cloudy
11:43 AM78.8 °F73.4 °F83 %29.69 in10.0 miNorth (10°)10.4 mphMostly Cloudy
11:58 AM78.8 °F75.2 °F89 %29.65 in10.0 miNNE (20°)9.2 mphOvercast
12:18 PM78.8 °F75.2 °F89 %29.68 in10.0 miNNE (20°)8.1 mphMostly Cloudy
12:23 PM78.8 °F75.2 °F89 %29.68 in10.0 miNNE (20°)8.1 mphMostly Cloudy
12:28 PM78.8 °F75.2 °F89 %29.68 in10.0 miNNE (30°)6.9 mphOvercast
12:33 PM78.8 °F75.2 °F89 %29.68 in10.0 miNNE (20°)2.3 mphOvercast
12:53 PM78.8 °F75.2 °F89 %29.67 in10.0 miNNE (30°)8.1 mphMostly Cloudy
12:58 PM78.8 °F75.2 °F89 %29.67 in10.0 miNNE (30°)5.8 mphMostly Cloudy
1:04 PM78.8 °F75.2 °F89 %29.67 in10.0 miNNE (20°)9.2 mphRainLight Rain
1:20 PM78.8 °F75.2 °F89 %29.66 in10.0 miNorth (360°)8.1 mphMostly Cloudy
1:35 PM77.0 °F75.2 °F94 %29.66 in10.0 miNNE (30°)5.8 mphMostly Cloudy
1:58 PM77.7 °F77.0 °F98 %29.62 in10.0 miNorth (10°)6.9 mph0.00 inOvercast
2:33 PM73.4 °F73.4 °F100 %29.63 in10.0 miNorth (360°)5.8 mphOvercast
2:38 PM77.0 °F75.2 °F94 %29.62 in10.0 miNorth (360°)5.8 mphOvercast
2:58 PM78.4 °F77.7 °F98 %29.59 in10.0 miNorth (350°)8.1 mphOvercast
3:13 PM78.8 °F77.0 °F94 %29.63 in10.0 miCalmLight Drizzle
3:18 PM78.8 °F77.0 °F94 %29.63 in10.0 miNNE (20°)6.9 mphLight Drizzle
3:23 PM78.8 °F77.0 °F94 %29.63 in10.0 miNNE (20°)5.8 mphRainLight Rain
3:58 PM77.7 °F77.7 °F100 %29.61 in8.0 miNNE (30°)4.6 mph0.01 inRainLight Rain
4:13 PM77.0 °F75.2 °F94 %29.65 in6.0 miESE (110°)9.2 mphRainRain
4:18 PM75.2 °F75.2 °F100 %29.65 in4.0 miEast (90°)6.9 mphRainRain
4:28 PM75.2 °F75.2 °F100 %29.64 in4.0 miEast (100°)6.9 mphRainRain
4:43 PM75.2 °F73.4 °F94 %29.64 in5.0 miESE (110°)8.1 mphRainLight Rain
4:48 PM75.2 °F75.2 °F100 %29.64 in7.0 miESE (120°)6.9 mphRainLight Rain
4:58 PM75.2 °F75.2 °F100 %29.60 in10.0 miEast (90°)4.6 mph0.09 inRainLight Rain
5:03 PM75.2 °F73.4 °F94 %29.63 in10.0 miEast (80°)4.6 mphLight Drizzle
5:15 PM75.2 °F73.4 °F94 %29.64 in10.0 miEast (80°)3.5 mphPartly Cloudy
5:30 PM75.2 °F73.4 °F94 %29.65 in10.0 miNE (50°)6.9 mphMostly Cloudy
5:35 PM77.0 °F75.2 °F94 %29.65 in10.0 miNE (50°)6.9 mphMostly Cloudy
5:40 PM77.0 °F75.2 °F94 %29.65 in10.0 miNE (50°)5.8 mphOvercast
5:45 PM77.0 °F75.2 °F94 %29.65 in10.0 miENE (60°)6.9 mphOvercast
5:50 PM77.0 °F75.2 °F94 %29.65 in10.0 miENE (60°)5.8 mphOvercast
5:58 PM77.0 °F75.2 °F94 %29.63 in10.0 miENE (60°)8.1 mph0.00 inOvercast
6:08 PM77.0 °F75.2 °F94 %29.66 in10.0 miENE (60°)6.9 mphOvercast
6:38 PM77.0 °F75.2 °F94 %29.65 in10.0 miENE (70°)8.1 mphMostly Cloudy
6:58 PM77.0 °F75.2 °F94 %29.63 in10.0 miEast (90°)3.5 mph0.01 inPartly Cloudy
7:58 PM77.0 °F75.2 °F94 %29.66 in7.0 miENE (60°)2.3 mphPartly Cloudy
8:58 PM77.0 °F75.2 °F94 %29.66 in10.0 miCalmScattered Clouds
9:08 PM77.0 °F75.2 °F94 %29.69 in10.0 miCalmMostly Cloudy
9:13 PM77.0 °F75.2 °F94 %29.69 in10.0 miCalmMostly Cloudy
9:23 PM77.0 °F75.2 °F94 %29.69 in8.0 miENE (60°)3.5 mphMostly Cloudy
9:33 PM77.0 °F75.2 °F94 %29.68 in9.0 miNNE (30°)3.5 mphOvercast
9:38 PM77.0 °F75.2 °F94 %29.68 in10.0 miNE (40°)4.6 mphOvercast
9:58 PM77.0 °F75.2 °F94 %29.65 in10.0 miNNE (30°)4.6 mphMostly Cloudy
10:03 PM77.0 °F75.2 °F94 %29.68 in10.0 miNE (40°)6.9 mphMostly Cloudy
10:08 PM77.0 °F75.2 °F94 %29.68 in10.0 miNE (40°)4.6 mphMostly Cloudy
10:13 PM77.0 °F75.2 °F94 %29.68 in10.0 miNE (50°)4.6 mphOvercast
10:18 PM77.0 °F75.2 °F94 %29.68 in10.0 miNE (50°)4.6 mphOvercast
10:23 PM77.0 °F75.2 °F94 %29.68 in10.0 miNE (40°)4.6 mphOvercast
10:38 PM77.0 °F75.2 °F94 %29.68 in10.0 miNE (50°)4.6 mphScattered Clouds
10:58 PM77.0 °F75.2 °F94 %29.65 in10.0 miNE (50°)3.5 mphClear
11:58 PM77.0 °F71.6 °F83 %29.64 in10.0 miNE (50°)3.5 mphScattered Clouds
Hourly data recorded from PGUA, located miles away from Pyga Beach, Guam







STORIES FROM OUR PARTNERS